Location: Demmingen
(48.6757°N, 10.4375°E)
Time: 22:21:13
(UTC+00:00)

CZ-2D R/B - Pass Details

Date: 23 May 2024
Orbit: 791 x 843 km, 98.8° (Epoch: 14 June)

Event Time Altitude Azimuth Distance (km) Brightness Sun altitude
Rises 00:10:37 0° 25° (NNE) 3,412 6.9 -19.6°
Reaches altitude 10° 00:13:34 10° 41° (NE) 2,468 5.6 -19.5°
Maximum altitude 00:17:44 22° 91° (E) 1,763 4.0 -19.3°
Enters shadow 00:21:25 12° 137° (SE) 2,320 4.2 -19.1°
